• Join FlightAware (Why Join?)
  • Login
  • US Flag 
09:55AM EDT


 

Airport Tracker/Info


-or-


 

Live Flight TrackerFlight Track Log ✈ UCA4838 ✈ 30-Apr-2013 ✈ KITH - KEWR

Flight Track Log - Related Links

Times and Time Zones

All times are in EDT time to prevent confusion due to time zone crossing. See the UCA4838 flight status page for this flight to view local times or setup timezone preferences in your user account.

Time Position Orientation Groundspeed Altitude Reporting Facility
EDT Latitude Longitude Course Direction KTS MPH feet Rate Location/Type
05:44PM 42.3989 -76.4650 149° Southeast 166 191 4,900  Level New York Center
05:45PM 42.3608 -76.4336 149° Southeast 148 170 6,400 1,260 Climbing New York Center
05:47PM 42.3219 -76.3100 113° Southeast 168 193 8,700 1,020 Climbing Boston Center
05:48PM 42.3017 -76.2331 110° East 198 228 9,800 1,200 Climbing Boston Center
05:49PM 42.2761 -76.1219 107° East 230 265 11,400 1,380 Climbing Boston Center
05:50PM 42.2558 -76.0394 108° East 230 265 12,600 1,200 Climbing Boston Center
05:51PM 42.2353 -75.9597 109° East 230 265 13,900 1,140 Climbing Boston Center
05:52PM 42.2128 -75.8769 110° East 230 265 14,900 540 Climbing Boston Center
05:53PM 42.1906 -75.7861 108° East 242 278 15,000  Climbing Boston Center
05:54PM 42.1642 -75.6867 110° East 257 296 15,000  Level Boston Center
05:55PM 42.1358 -75.5844 110° East 271 312 15,000  Level Boston Center
05:56PM 42.1094 -75.4850 110° East 279 321 15,000  Level Boston Center
05:57PM 42.0847 -75.3886 109° East 273 314 15,000  Level Boston Center
05:58PM 42.0558 -75.2950 113° Southeast 273 314 15,000  Level Boston Center
05:59PM 42.0228 -75.2042 116° Southeast 273 314 15,000  Level Boston Center
06:00PM 42.0033 -75.1503 116° Southeast 273 314 15,000  Level Boston Center
06:01PM 41.9542 -75.0225 117° Southeast 267 307 15,000 -360 Level Boston Center
06:02PM 41.9142 -74.9483 126° Southeast 273 314 14,300 -1,200 Descending Boston Center
06:03PM 41.8431 -74.8592 137° Southeast 287 330 12,400 -1,800 Descending Boston Center
06:04PM 41.7844 -74.7733 132° Southeast 292 336 10,800 -1,500 Descending Boston Center
06:05PM 41.7358 -74.7075 135° Southeast 285 328 9,400 -1,380 Descending Boston Center
06:06PM 41.6592 -74.6742 162° South 263 303 8,100 -1,200 Descending Boston Center
06:07PM 41.5950 -74.6525 166° South 263 303 7,000 -1,080 Descending Boston Center
06:08PM 41.5183 -74.6275 166° South 263 303 6,000 -420 Descending Boston Center
06:09PM 41.4333 -74.6000 166° South 251 289 6,100  Climbing New York TRACON
06:10PM 41.3667 -74.6167 191° South 249 287 6,000 -300 Descending New York TRACON
06:11PM 41.2833 -74.6333 189° South 254 292 5,600 -540 Descending New York TRACON
06:12PM 41.2167 -74.6667 201° Southwest 258 297 5,000 -300 Descending New York TRACON
06:14PM 41.1667 -74.6167 143° Southeast 251 289 5,000  Level New York TRACON
06:14PM 41.1333 -74.5500 124° Southeast 247 284 5,000  Level New York TRACON
06:16PM 41.0833 -74.4667 129° Southeast 236 272 5,000  Level New York TRACON
06:16PM 41.0500 -74.4167 131° Southeast 204 235 5,000  Level New York TRACON
06:17PM 41.0500 -74.3500 90° East 191 220 5,000 -240 Level New York TRACON
06:18PM 41.0333 -74.2833 108° East 195 224 4,600 -540 Descending New York TRACON
06:19PM 41.0167 -74.2167 108° East 190 219 4,000 -300 Descending New York TRACON
06:20PM 40.9667 -74.1667 143° Southeast 192 221 4,000 -240 Level New York TRACON
06:22PM 40.9333 -74.1167 131° Southeast 197 227 3,500 -540 Descending New York TRACON
06:22PM 40.9000 -74.0833 143° Southeast 188 216 3,000 -300 Descending New York TRACON
06:24PM 40.8333 -74.0667 169° South 178 205 3,000 -360 Level New York TRACON
06:24PM 40.8000 -74.1000 217° Southwest 187 215 2,300 -900 Descending New York TRACON
06:26PM 40.7500 -74.1333 207° Southwest 154 177 1,300 -900 Descending New York TRACON
06:27PM 40.7167 -74.1500 201° Southwest 126 145 500 -840 Descending New York TRACON